Location: Unspecified
(33.6682°S, 0.0000°E)
Time: 05:43:33
(UTC+00:00)

Tiros 1 despin weight - Pass Details

Date: 26 June 2019
Orbit: 594 x 642 km, 48.2° (Epoch: 17 August)

Event Time Altitude Azimuth Distance (km) Brightness Sun altitude
Rises 07:51:22 0° 335° (NNW) 2,868 ? 7.4°
Reaches altitude 10° 07:53:50 10° 345° (NNW) 1,979 ? 7.8°
Maximum altitude 07:57:52 31° 47° (NE) 1,096 ? 8.5°
Drops below altitude 10° 08:01:59 10° 109° (ESE) 2,025 ? 9.2°
Sets 08:04:32 0° 119° (ESE) 2,947 ? 9.6°
